sat.trackr.live / text

‹ back to catalog

STARLINK-11569 [DTC]

NORAD 62910 · 2025-027D

PAYLOAD ACTIVE UNKNOWN

§ Identity

Operator
Country
US
Launch date
2025-02-08
Launch site
AFETR
Launch vehicle
Mass (kg)
RCS (m²)

Purposes: comms

External: N2YO · Heavens-Above · Gunter

§ Orbital elements

Epoch: 2026-05-24T14:37:53.989824Z

Period
91.66 min
Inclination
42.9993°
Eccentricity
0.0002113
Mean motion
15.71042905 rev/d
Perigee alt
354.5 km
Apogee alt
357.3 km
Semi-major
6,734.1 km
B*
1.7243e-3
RAAN
249.9293°
Arg perigee
309.3906°
Mean anomaly
50.6774°
Rev number
7,509

§ Raw data

STARLINK-11569 [DTC]1 62910U 25027D   26144.60965266  .00228949  00000+0  17243-2 0  99932 62910  42.9993 249.9293 0002113 309.3906  50.6774 15.71042905 75095

JSON: /api/v1/satellites/62910 · /tle

For live sub-satellite position, see the globe view (requires WebGL).

§ Visibility from observer

Set your observer location to see the next 7 days of passes ≥ 10°. The values pass through the URL so the page stays shareable.

No JS? Fill the form by hand. The geolocation button needs JavaScript.